Tracking 20083 objects as of 12-Dec-2019
HD Live streaming from Space Station
objects crossing your sky now

COMPASS 2

Track COMPASS 2 now!
10-day predictions


NORAD ID: 42777
Int'l Code: 2017-036N
Perigee: 495.0 km
Apogee: 510.7 km
Inclination: 97.3 °
Period: 94.5 minutes
Semi major axis: 6873 km
RCS: Unknown
Launch date: June 23, 2017
Source: Germany (GER)
Launch site: SRIHARIKOTA (SRI)
aabbcc
Your satellite tracking list
Your tracking list is empty




NASA's NSSDC Master Catalog

Two Line Element Set (TLE):
1 42777U 17036N   19345.67046828 +.00001330 +00000-0 +58850-4 0  9994
2 42777 097.3331 039.9200 0011374 328.8330 031.2231 15.23356841137057
Source of the keplerian elements: AFSPC